This is the latest recevied weather packets stored in our database for station/object AE0NK. If no packets are shown the sender has not sent any weather packets the latest 10 day(s).
| Time | Temp. | Humidity | Pressure | Rain* | Wind** | Luminosity | Snow |
|---|---|---|---|---|---|---|---|
| 1778089404 | 11.11° C | 39% | 1016.8 hPa | 0 mm | - | 388 W/m² | - |
| 1778089103 | 11.11° C | 39% | 1016.9 hPa | 0 mm | - | 371 W/m² | - |
| 1778088801 | 11.67° C | 36% | 1016.8 hPa | 0 mm | - | 573 W/m² | - |
| 1778088499 | 11.11° C | 37% | 1016.7 hPa | 0 mm | - | 594 W/m² | - |
| 1778088197 | 11.11° C | 38% | 1016.8 hPa | 0 mm | - | 396 W/m² | - |
| 1778087893 | 11.11° C | 38% | 1017.1 hPa | 0 mm | - | 1058 W/m² | - |
| 1778087292 | 11.11° C | 41% | 1017 hPa | 0 mm | - | 299 W/m² | - |
| 1778086992 | 11.67° C | 38% | 1017.1 hPa | 0 mm | - | 255 W/m² | - |
| 1778086706 | 12.22° C | 37% | 1017.1 hPa | 0 mm | - | 290 W/m² | - |
| 1778086403 | 11.67° C | 37% | 1016.8 hPa | 0 mm | - | 1058 W/m² | - |
| 1778086101 | 11.11° C | 39% | 1016.9 hPa | 0 mm | - | 882 W/m² | - |
| 1778085799 | 11.11° C | 37% | 1016.9 hPa | 0 mm | - | 367 W/m² | - |
| 1778085497 | 11.11° C | 42% | 1016.9 hPa | 0 mm | - | 863 W/m² | - |
| 1778085196 | 10.56° C | 40% | 1016.9 hPa | 0 mm | - | 239 W/m² | - |
| 1778084894 | 11.11° C | 41% | 1016.9 hPa | 0 mm | - | 1011 W/m² | - |
| 1778084611 | 10.56° C | 40% | 1016.9 hPa | 0 mm | - | 900 W/m² | - |
| 1778084309 | 10.56° C | 39% | 1016.9 hPa | 0 mm | - | 879 W/m² | - |
| 1778084006 | 10.56° C | 43% | 1017 hPa | 0 mm | - | 185 W/m² | - |
| 1778083705 | 10.56° C | 42% | 1017.1 hPa | 0 mm | - | 786 W/m² | - |
| 1778083404 | 10.56° C | 42% | 1017.1 hPa | 0 mm | - | 916 W/m² | - |
| 1778083097 | 10.56° C | 40% | 1017 hPa | 0 mm | - | 872 W/m² | - |
| 1778082796 | 10.56° C | 41% | 1017.1 hPa | 0 mm | - | 786 W/m² | - |
| 1778082492 | 10° C | 42% | 1016.9 hPa | 0 mm | - | 765 W/m² | - |
| 1778082208 | 10° C | 42% | 1017.1 hPa | 0 mm | - | 742 W/m² | - |
| 1778081606 | 10° C | 44% | 1017 hPa | 0 mm | - | 752 W/m² | - |
* Rain latest hour (hover to see other rain measurements)
** Current wind speed in m/s (hover to see current wind gust speed)